Radiation Dose at Monitoring Post of Fukushima Daini Nuclear Power Station
Date,Time,MP-1(microSv/h),MP-2(microSv/h),MP-3(microSv/h),MP-4(microSv/h),MP-5(microSv/h),MP-6(microSv/h),MP-7(microSv/h),Wind Direction,Wind Velocity(m/s),Rain
2015/02/26,00:00,0.545,0.331,0.559,0.508,0.549,0.256,0.228,north,2.2,No
2015/02/26,00:10,0.542,0.330,0.559,0.510,0.550,0.257,0.229,north,2.1,No
2015/02/26,00:20,0.544,0.332,0.559,0.510,0.552,0.256,0.229,north,2.4,No
2015/02/26,00:30,0.544,0.331,0.559,0.509,0.551,0.256,0.229,north,2.8,No
2015/02/26,00:40,0.544,0.331,0.559,0.509,0.550,0.256,0.228,north,2.7,No
2015/02/26,00:50,0.542,0.331,0.559,0.507,0.551,0.256,0.230,north,2.3,No
2015/02/26,01:00,0.542,0.330,0.560,0.509,0.550,0.255,0.229,north,2.7,No
2015/02/26,01:10,0.545,0.331,0.560,0.510,0.550,0.254,0.228,north,2.8,No
2015/02/26,01:20,0.543,0.329,0.560,0.508,0.551,0.256,0.229,north,1.9,No
2015/02/26,01:30,0.541,0.329,0.559,0.508,0.550,0.256,0.227,north,2.5,No
2015/02/26,01:40,0.543,0.332,0.558,0.510,0.550,0.256,0.230,north,2.3,No
2015/02/26,01:50,0.544,0.329,0.560,0.509,0.549,0.255,0.229,north,2.0,No
2015/02/26,02:00,0.542,0.330,0.559,0.510,0.551,0.255,0.229,north,2.1,No
2015/02/26,02:10,0.542,0.330,0.557,0.508,0.551,0.256,0.229,north,2.2,No
2015/02/26,02:20,0.543,0.331,0.558,0.508,0.550,0.255,0.227,north,2.0,No
2015/02/26,02:30,0.543,0.331,0.560,0.508,0.549,0.255,0.227,north,1.8,No
2015/02/26,02:40,0.544,0.330,0.559,0.508,0.549,0.255,0.228,north,1.8,No
2015/02/26,02:50,0.544,0.330,0.559,0.509,0.548,0.255,0.228,north,1.4,No
2015/02/26,03:00,0.545,0.332,0.557,0.509,0.547,0.256,0.227,north,1.4,No
2015/02/26,03:10,0.542,0.331,0.558,0.508,0.552,0.255,0.228,north,1.5,No
2015/02/26,03:20,0.545,0.332,0.560,0.508,0.551,0.255,0.228,north,1.4,No
2015/02/26,03:30,0.544,0.331,0.556,0.510,0.549,0.255,0.229,north,2.1,No
2015/02/26,03:40,0.543,0.331,0.561,0.508,0.550,0.255,0.228,north,2.1,No
2015/02/26,03:50,0.544,0.330,0.557,0.509,0.551,0.255,0.228,north,1.5,No
2015/02/26,04:00,0.543,0.331,0.560,0.508,0.550,0.255,0.227,north,1.4,No
2015/02/26,04:10,0.543,0.332,0.558,0.510,0.549,0.255,0.228,north,1.6,No
2015/02/26,04:20,0.543,0.332,0.560,0.508,0.550,0.255,0.227,north,1.8,No
2015/02/26,04:30,0.545,0.330,0.558,0.508,0.550,0.256,0.229,north,1.9,No
2015/02/26,04:40,0.544,0.331,0.559,0.510,0.550,0.255,0.228,north,2.1,No
2015/02/26,04:50,0.544,0.330,0.561,0.509,0.550,0.255,0.228,north,2.1,No
2015/02/26,05:00,0.547,0.330,0.559,0.509,0.551,0.255,0.228,north,1.4,No
2015/02/26,05:10,0.544,0.331,0.557,0.508,0.550,0.256,0.228,north,1.9,No
2015/02/26,05:20,0.542,0.331,0.560,0.509,0.549,0.255,0.228,north-northeast,2.3,No
2015/02/26,05:30,0.545,0.330,0.559,0.508,0.551,0.255,0.229,north,2.2,No
2015/02/26,05:40,0.544,0.331,0.558,0.508,0.551,0.254,0.228,north,2.5,No
2015/02/26,05:50,0.544,0.330,0.557,0.509,0.549,0.256,0.228,north,3.1,No
2015/02/26,06:00,0.547,0.332,0.561,0.510,0.552,0.255,0.228,north,2.8,No
2015/02/26,06:10,0.544,0.332,0.557,0.509,0.551,0.256,0.228,north,2.1,No
2015/02/26,06:20,0.542,0.331,0.556,0.508,0.548,0.254,0.228,north,1.7,No
2015/02/26,06:30,0.545,0.330,0.560,0.510,0.549,0.255,0.229,north,1.6,No
2015/02/26,06:40,0.546,0.330,0.559,0.509,0.551,0.256,0.228,north,2.7,No
2015/02/26,06:50,0.545,0.331,0.558,0.508,0.552,0.255,0.228,north,1.2,No
2015/02/26,07:00,0.545,0.329,0.559,0.507,0.549,0.254,0.228,north,1.1,No
2015/02/26,07:10,0.544,0.332,0.560,0.509,0.551,0.256,0.228,north-northeast,0.7,No
2015/02/26,07:20,0.544,0.331,0.559,0.507,0.551,0.255,0.227,north-northeast,1.1,No
2015/02/26,07:30,0.543,0.328,0.556,0.507,0.544,0.255,0.228,north,0.8,No
2015/02/26,07:40,0.530,0.322,0.541,0.496,0.532,0.250,0.225,north,1.3,No
2015/02/26,07:50,0.521,0.313,0.536,0.488,0.524,0.247,0.219,-,CALM,No
2015/02/26,08:00,0.518,0.312,0.535,0.487,0.517,0.245,0.217,north,0.6,No
2015/02/26,08:10,0.519,0.307,0.535,0.486,0.515,0.245,0.215,north,2.0,No
2015/02/26,08:20,0.515,0.308,0.537,0.486,0.516,0.245,0.214,-,CALM,No
2015/02/26,08:30,0.517,0.309,0.538,0.490,0.515,0.243,0.213,north-northwest,0.5,No
2015/02/26,08:40,0.517,0.308,0.540,0.490,0.516,0.244,0.214,north-northwest,0.8,No
2015/02/26,08:50,0.520,0.308,0.543,0.494,0.518,0.245,0.214,north,1.7,No
2015/02/26,09:00,0.522,0.309,0.543,0.494,0.520,0.245,0.213,north,1.5,No
2015/02/26,09:10,0.524,0.310,0.544,0.496,0.525,0.244,0.213,north-northwest,1.7,No
2015/02/26,09:20,0.524,0.310,0.546,0.498,0.527,0.245,0.214,-,CALM,No
2015/02/26,09:30,0.527,0.311,0.545,0.499,0.526,0.245,0.212,-,CALM,No
2015/02/26,09:40,0.528,0.312,0.549,0.501,0.525,0.245,0.213,north,0.6,No
2015/02/26,09:50,0.531,0.313,0.554,0.504,0.533,0.247,0.212,north,0.6,No
2015/02/26,10:00,0.571,0.337,0.602,0.542,0.585,0.263,0.227,north-northeast,0.5,No
2015/02/26,10:10,0.585,0.348,0.611,0.555,0.603,0.269,0.235,-,CALM,No
2015/02/26,10:20,0.582,0.348,0.602,0.547,0.598,0.267,0.235,-,CALM,No
2015/02/26,10:30,0.572,0.345,0.590,0.540,0.587,0.266,0.233,northeast,0.6,No
2015/02/26,10:40,0.564,0.342,0.577,0.531,0.576,0.264,0.233,southwest,0.8,No
2015/02/26,10:50,0.561,0.338,0.576,0.526,0.571,0.261,0.230,-,CALM,Yes
2015/02/26,11:00,0.555,0.337,0.571,0.520,0.566,0.259,0.231,south,0.6,Yes
2015/02/26,11:10,0.550,0.335,0.565,0.517,0.561,0.259,0.229,south-southwest,0.7,Yes
2015/02/26,11:20,0.550,0.334,0.565,0.517,0.563,0.258,0.230,south-southeast,0.6,Yes
2015/02/26,11:30,0.546,0.334,0.561,0.513,0.557,0.257,0.229,south,1.5,Yes
2015/02/26,11:40,0.546,0.332,0.561,0.514,0.557,0.256,0.230,south,1.5,Yes
2015/02/26,11:50,0.546,0.331,0.562,0.513,0.556,0.258,0.229,south-southeast,0.7,Yes
2015/02/26,12:00,0.544,0.334,0.559,0.510,0.553,0.256,0.231,east-southeast,0.6,Yes
2015/02/26,12:10,0.545,0.333,0.560,0.513,0.552,0.258,0.231,east-northeast,0.6,Yes
2015/02/26,12:20,0.546,0.332,0.561,0.514,0.554,0.257,0.231,northeast,0.6,Yes
2015/02/26,12:30,0.543,0.334,0.561,0.513,0.554,0.257,0.231,northeast,1.1,Yes
2015/02/26,12:40,0.546,0.335,0.561,0.510,0.554,0.258,0.232,-,CALM,Yes
2015/02/26,12:50,0.545,0.334,0.562,0.513,0.555,0.261,0.233,-,CALM,Yes
2015/02/26,13:00,0.544,0.338,0.561,0.512,0.556,0.260,0.234,-,CALM,Yes
2015/02/26,13:10,0.548,0.337,0.560,0.511,0.554,0.261,0.236,-,CALM,Yes
2015/02/26,13:20,0.549,0.335,0.562,0.514,0.555,0.262,0.234,south-southwest,0.8,Yes
2015/02/26,13:30,0.544,0.335,0.561,0.511,0.554,0.263,0.233,south-southwest,1.1,Yes
2015/02/26,13:40,0.544,0.336,0.558,0.509,0.552,0.261,0.233,north,4.8,Yes
2015/02/26,13:50,0.547,0.334,0.556,0.511,0.554,0.259,0.233,south-southwest,1.1,Yes
2015/02/26,14:00,0.543,0.336,0.558,0.510,0.554,0.261,0.232,southwest,1.2,Yes
2015/02/26,14:10,0.543,0.336,0.558,0.508,0.553,0.261,0.232,west-southwest,1.7,Yes
2015/02/26,14:20,0.544,0.336,0.555,0.509,0.551,0.260,0.232,west-southwest,0.9,Yes
2015/02/26,14:30,0.541,0.334,0.557,0.508,0.552,0.261,0.232,west-southwest,1.1,Yes
2015/02/26,14:40,0.543,0.334,0.556,0.507,0.552,0.263,0.234,-,CALM,Yes
2015/02/26,14:50,0.544,0.337,0.553,0.507,0.551,0.261,0.232,-,CALM,Yes
2015/02/26,15:00,0.540,0.334,0.555,0.507,0.551,0.260,0.232,north,0.9,Yes
2015/02/26,15:10,0.542,0.333,0.554,0.504,0.549,0.260,0.231,-,CALM,Yes
2015/02/26,15:20,0.541,0.335,0.551,0.503,0.548,0.259,0.231,north-northwest,5.9,Yes
2015/02/26,15:30,0.540,0.334,0.551,0.504,0.551,0.259,0.229,west-northwest,1.8,Yes
2015/02/26,15:40,0.538,0.332,0.552,0.503,0.548,0.258,0.230,west-northwest,8.7,Yes
2015/02/26,15:50,0.539,0.334,0.551,0.500,0.549,0.259,0.229,west-northwest,1.9,Yes
2015/02/26,16:00,0.539,0.333,0.549,0.501,0.549,0.258,0.230,west,2.2,Yes
2015/02/26,16:10,0.537,0.332,0.550,0.503,0.549,0.259,0.230,north-northwest,4.5,Yes
2015/02/26,16:20,0.541,0.332,0.549,0.501,0.550,0.260,0.231,north,3.1,Yes
2015/02/26,16:30,0.537,0.334,0.547,0.501,0.550,0.259,0.230,west-southwest,10.3,Yes
2015/02/26,16:40,0.537,0.333,0.546,0.502,0.550,0.260,0.229,north-northwest,3.7,Yes
2015/02/26,16:50,0.539,0.332,0.548,0.499,0.548,0.259,0.231,southwest,1.1,Yes
2015/02/26,17:00,0.538,0.333,0.547,0.496,0.548,0.258,0.231,west-southwest,3.7,Yes
2015/02/26,17:10,0.535,0.331,0.546,0.500,0.547,0.260,0.230,northwest,4.3,Yes
2015/02/26,17:20,0.538,0.332,0.544,0.498,0.548,0.260,0.230,southwest,1.8,Yes
2015/02/26,17:30,0.536,0.333,0.542,0.495,0.547,0.259,0.231,southwest,2.8,Yes
2015/02/26,17:40,0.536,0.332,0.541,0.498,0.549,0.258,0.229,west-southwest,2.8,Yes
2015/02/26,17:50,0.539,0.331,0.542,0.496,0.548,0.259,0.229,north-northwest,1.6,Yes
2015/02/26,18:00,0.534,0.330,0.540,0.496,0.546,0.259,0.230,north,2.9,Yes
2015/02/26,18:10,0.535,0.332,0.540,0.494,0.550,0.259,0.229,northwest,0.9,Yes
2015/02/26,18:20,0.536,0.331,0.541,0.496,0.548,0.258,0.230,north-northwest,6.1,Yes
2015/02/26,18:30,0.534,0.331,0.540,0.494,0.545,0.258,0.228,north-northwest,1.6,Yes
2015/02/26,18:40,0.533,0.333,0.540,0.493,0.547,0.258,0.229,north-northeast,2.3,Yes
2015/02/26,18:50,0.534,0.331,0.541,0.496,0.547,0.258,0.229,north-northeast,5.2,Yes
2015/02/26,19:00,0.535,0.330,0.541,0.495,0.547,0.257,0.229,north,3.6,Yes
2015/02/26,19:10,0.532,0.331,0.539,0.492,0.545,0.258,0.229,north,5.1,Yes
2015/02/26,19:20,0.534,0.331,0.538,0.493,0.548,0.257,0.227,north,5.3,Yes
2015/02/26,19:30,0.533,0.330,0.541,0.494,0.546,0.258,0.228,north,4.2,Yes
2015/02/26,19:40,0.531,0.330,0.538,0.492,0.545,0.257,0.228,north,2.6,Yes
2015/02/26,19:50,0.533,0.331,0.536,0.490,0.547,0.257,0.228,north-northeast,1.5,Yes
2015/02/26,20:00,0.533,0.330,0.538,0.491,0.545,0.257,0.227,west-southwest,5.8,Yes
2015/02/26,20:10,0.530,0.329,0.538,0.493,0.545,0.255,0.228,north,13.9,Yes
2015/02/26,20:20,0.533,0.330,0.538,0.491,0.546,0.257,0.229,north-northwest,3.8,Yes
2015/02/26,20:30,0.533,0.330,0.537,0.491,0.545,0.257,0.227,north-northwest,4.5,Yes
2015/02/26,20:40,0.534,0.328,0.540,0.494,0.547,0.254,0.227,northwest,4.1,Yes
2015/02/26,20:50,0.531,0.328,0.536,0.493,0.545,0.254,0.226,north-northwest,3.0,No
2015/02/26,21:00,0.533,0.329,0.537,0.491,0.548,0.253,0.224,northwest,2.7,Yes
2015/02/26,21:10,0.533,0.328,0.541,0.492,0.545,0.254,0.225,north-northwest,2.8,Yes
2015/02/26,21:20,0.529,0.327,0.539,0.492,0.543,0.253,0.224,north,3.9,No
2015/02/26,21:30,0.533,0.326,0.537,0.493,0.543,0.253,0.224,north-northwest,3.9,No
2015/02/26,21:40,0.530,0.328,0.540,0.491,0.545,0.252,0.222,north-northwest,4.0,No
2015/02/26,21:50,0.531,0.326,0.539,0.494,0.543,0.250,0.224,north-northwest,4.2,No
2015/02/26,22:00,0.531,0.325,0.538,0.493,0.543,0.252,0.222,north,4.2,No
2015/02/26,22:10,0.529,0.327,0.539,0.492,0.544,0.250,0.222,north,4.2,No
2015/02/26,22:20,0.529,0.324,0.541,0.492,0.544,0.250,0.222,north,5.0,No
2015/02/26,22:30,0.531,0.324,0.539,0.493,0.539,0.249,0.221,north,4.9,No
2015/02/26,22:40,0.529,0.324,0.538,0.492,0.543,0.250,0.222,north,4.8,No
2015/02/26,22:50,0.529,0.325,0.541,0.492,0.541,0.250,0.220,north,4.5,No
2015/02/26,23:00,0.532,0.323,0.541,0.494,0.543,0.251,0.220,north,3.1,No
2015/02/26,23:10,0.530,0.325,0.538,0.491,0.541,0.249,0.221,north-northeast,1.8,No
2015/02/26,23:20,0.528,0.324,0.539,0.491,0.540,0.249,0.220,north-northeast,1.6,No
2015/02/26,23:30,0.530,0.323,0.539,0.494,0.543,0.250,0.220,north,2.1,No
2015/02/26,23:40,0.530,0.323,0.538,0.492,0.542,0.249,0.219,north-northwest,3.2,No
2015/02/26,23:50,0.529,0.324,0.539,0.492,0.543,0.248,0.220,north-northwest,3.9,No
